FW9130 Weather Reports


Display with metric or nautical units.
time (UTC)temp
F
wind
direction
speed
MPH
gust
MPH
rain 1hr
in
rain 24hr
in
rain mn
in
humidity
%
barometer
mb
20260506024229 66 193 2.0 2.0 0.00 0.00 0.00 55 1012.0
20260506023725 66 174 3.0 3.0 0.00 0.00 0.00 55 1012.0
20260506023223 66 78 3.0 5.0 0.00 0.00 0.00 54 1012.1
20260506022719 66 168 4.0 5.0 0.00 0.00 0.00 54 1012.3
20260506022217 66 181 3.0 3.0 0.00 0.00 0.00 54 1012.1
20260506021715 67 174 1.0 2.0 0.00 0.00 0.00 54 1012.1
20260506021212 67 138 2.0 2.0 0.00 0.00 0.00 54 1012.1
20260506020708 67 176 3.0 3.0 0.00 0.00 0.00 53 1012.1
20260506020206 67 134 2.0 3.0 0.00 0.00 0.00 53 1011.9
20260506015704 67 142 2.0 2.0 0.00 0.00 0.00 54 1011.9
20260506015201 67 185 2.0 2.0 0.00 0.00 0.00 53 1012.1
20260506014658 68 159 2.0 2.0 0.00 0.00 0.00 53 1012.0
20260506014154 68 160 3.0 3.0 0.00 0.00 0.00 53 1012.1
20260506013652 68 198 3.0 3.0 0.00 0.00 0.00 52 1011.8
20260506013149 68 193 4.0 5.0 0.00 0.00 0.00 51 1011.7
20260506012645 68 185 3.0 3.0 0.00 0.00 0.00 52 1011.8
20260506012142 68 165 2.0 2.0 0.00 0.00 0.00 51 1011.6
20260506011639 68 162 2.0 2.0 0.00 0.00 0.00 51 1011.4
20260506011135 68 166 1.0 2.0 0.00 0.00 0.00 52 1011.6
20260506010634 68 133 3.0 3.0 0.00 0.00 0.00 51 1011.6
20260506010131 68 148 1.0 1.0 0.00 0.00 0.00 51 1011.4
20260506005628 68 135 2.0 2.0 0.00 0.00 0.00 51 1011.1
20260506005124 68 177 1.0 2.0 0.00 0.00 0.00 50 1011.5
20260506004621 69 160 2.0 2.0 0.00 0.00 0.00 50 1011.4
20260506004118 69 163 2.0 3.0 0.00 0.00 0.00 49 1011.4
20260506003614 69 168 2.0 2.0 0.00 0.00 0.00 48 1011.3
20260506003110 69 165 2.0 2.0 0.00 0.00 0.00 48 1011.2
20260506002606 69 178 3.0 5.0 0.00 0.00 0.00 48 1011.2
20260506002103 70 198 3.0 5.0 0.00 0.00 0.00 48 1011.4
20260506001559 70 165 1.0 2.0 0.00 0.00 0.00 47 1011.2
20260506001056 70 149 2.0 2.0 0.00 0.00 0.00 47 1011.2
20260506000554 70 165 2.0 2.0 0.00 0.00 0.00 47 1011.3
20260506000051 70 139 2.0 2.0 0.00 0.00 0.00 47 1011.0
20260505235549 70 180 3.0 3.0 0.00 0.00 0.00 47 1011.2
20260505235045 71 167 2.0 2.0 0.00 0.00 0.00 47 1011.1
20260505234542 70 144 1.0 1.0 0.00 0.00 0.00 48 1011.1
20260505234039 71 138 2.0 2.0 0.00 0.00 0.00 48 1011.1
20260505233537 71 145 2.0 2.0 0.00 0.00 0.00 47 1011.0
20260505233034 70 158 2.0 2.0 0.00 0.00 0.00 48 1011.0
20260505232532 70 156 2.0 2.0 0.00 0.00 0.00 48 1010.9
20260505232029 71 144 1.0 1.0 0.00 0.00 0.00 47 1011.0
20260505231526 71 168 1.0 2.0 0.00 0.00 0.00 47 1011.0
20260505231025 71 174 2.0 2.0 0.00 0.00 0.00 47 1010.9
20260505230521 71 321 3.0 3.0 0.00 0.00 0.00 46 1010.8
20260505230018 71 159 1.0 2.0 0.00 0.00 0.00 47 1011.1
20260505225515 71 169 3.0 3.0 0.00 0.00 0.00 46 1010.7
20260505225011 71 145 2.0 2.0 0.00 0.00 0.00 47 1010.7
20260505224508 71 222 3.0 3.0 0.00 0.00 0.00 46 1010.6
20260505224005 71 158 3.0 3.0 0.00 0.00 0.00 46 1010.6
20260505223502 71 171 2.0 2.0 0.00 0.00 0.00 45 1010.6
20260505222958 71 252 3.0 5.0 0.00 0.00 0.00 45 1010.8
20260505222455 71 160 1.0 2.0 0.00 0.00 0.00 45 1010.6
20260505221950 71 144 1.0 1.0 0.00 0.00 0.00 45 1010.6
20260505221448 72 210 2.0 2.0 0.00 0.00 0.00 45 1010.9
20260505220945 72 184 2.0 3.0 0.00 0.00 0.00 45 1010.6
20260505220442 72 172 3.0 3.0 0.00 0.00 0.00 45 1010.5
20260505215940 72 144 1.0 1.0 0.00 0.00 0.00 46 1010.6
20260505215438 72 295 2.0 2.0 0.00 0.00 0.00 45 1010.4
20260505214935 72 179 3.0 3.0 0.00 0.00 0.00 45 1010.5
20260505214433 72 173 3.0 3.0 0.00 0.00 0.00 44 1010.1
20260505213930 72 296 3.0 5.0 0.00 0.00 0.00 44 1010.4
20260505213427 72 237 3.0 5.0 0.00 0.00 0.00 45 1010.1
20260505212923 73 220 5.0 6.0 0.00 0.00 0.00 44 1010.1
20260505212420 73 250 3.0 3.0 0.00 0.00 0.00 44 1010.4
20260505211916 73 192 3.0 3.0 0.00 0.00 0.00 45 1010.2
20260505211414 73 191 3.0 3.0 0.00 0.00 0.00 45 1010.0
20260505210910 74 195 2.0 3.0 0.00 0.00 0.00 45 1010.1
20260505210408 74 88 1.0 1.0 0.00 0.00 0.00 44 1010.0
20260505205905 75 229 5.0 5.0 0.00 0.00 0.00 42 1010.0
20260505205403 75 193 2.0 2.0 0.00 0.00 0.00 41 1010.0
20260505204900 75 217 3.0 5.0 0.00 0.00 0.00 40 1010.0
20260505204357 75 141 2.0 2.0 0.00 0.00 0.00 38 1009.7
20260505203855 76 124 3.0 5.0 0.00 0.00 0.00 36 1009.9
20260505203351 75 248 4.0 5.0 0.00 0.00 0.00 37 1010.2
20260505202847 76 161 3.0 3.0 0.00 0.00 0.00 37 1010.0
20260505202343 76 184 2.0 3.0 0.00 0.00 0.00 37 1009.9
20260505201840 77 169 5.0 6.0 0.00 0.00 0.00 36 1010.0
20260505201337 75 234 2.0 2.0 0.00 0.00 0.00 39 1009.9
20260505200836 74 191 7.0 9.0 0.00 0.00 0.00 38 1009.9
20260505200332 75 265 3.0 3.0 0.00 0.00 0.00 39 1009.8
20260505195828 75 220 2.0 2.0 0.00 0.00 0.00 37 1010.0
20260505195325 75 189 5.0 6.0 0.00 0.00 0.00 37 1010.2
20260505194822 75 179 3.0 5.0 0.00 0.00 0.00 37 1010.1
20260505194319 75 177 3.0 3.0 0.00 0.00 0.00 37 1010.2
20260505193814 75 230 6.0 8.0 0.00 0.00 0.00 37 1010.4
20260505193313 74 326 5.0 7.0 0.00 0.00 0.00 39 1010.4
20260505192810 75 187 5.0 6.0 0.00 0.00 0.00 37 1010.2
20260505192310 76 271 5.0 7.0 0.00 0.00 0.00 36 1010.8
20260505191806 76 202 5.0 6.0 0.00 0.00 0.00 38 1010.5
20260505191304 76 293 5.0 7.0 0.00 0.00 0.00 38 1010.5
20260505190800 76 167 5.0 8.0 0.00 0.00 0.00 37 1010.4
20260505190256 76 214 5.0 7.0 0.00 0.00 0.00 37 1010.8
20260505185752 74 144 3.0 5.0 0.00 0.00 0.00 40 1010.7
20260505185248 75 193 4.0 6.0 0.00 0.00 0.00 39 1011.0
20260505184744 75 190 3.0 6.0 0.00 0.00 0.00 39 1010.9
20260505184242 75 171 3.0 6.0 0.00 0.00 0.00 39 1010.9
20260505183738 75 198 5.0 7.0 0.00 0.00 0.00 38 1010.9
20260505183236 75 182 4.0 6.0 0.00 0.00 0.00 39 1010.8
20260505182732 75 219 4.0 6.0 0.00 0.00 0.00 40 1010.8
20260505182229 76 193 4.0 5.0 0.00 0.00 0.00 41 1011.0
20260505181725 75 138 1.0 1.0 0.00 0.00 0.00 41 1011.1
20260505181223 75 180 3.0 7.0 0.00 0.00 0.00 42 1011.2
20260505180720 74 169 3.0 3.0 0.00 0.00 0.00 44 1011.5
20260505180217 75 272 4.0 5.0 0.00 0.00 0.00 44 1011.3
20260505175713 75 181 5.0 6.0 0.00 0.00 0.00 45 1011.1
20260505175209 74 154 3.0 3.0 0.00 0.00 0.00 46 1011.4
20260505174706 73 142 1.0 2.0 0.00 0.00 0.00 48 1011.8
20260505174203 72 180 3.0 3.0 0.00 0.00 0.00 48 1011.7
20260505173659 73 192 6.0 7.0 0.00 0.00 0.00 48 1011.4
20260505173155 74 82 5.0 8.0 0.00 0.00 0.00 45 1011.3
20260505172653 74 188 3.0 3.0 0.00 0.00 0.00 46 1011.6
20260505172150 75 138 2.0 3.0 0.00 0.00 0.00 44 1011.5
20260505171649 74 347 6.0 7.0 0.00 0.00 0.00 43 1011.9
20260505171147 74 299 7.0 9.0 0.00 0.00 0.00 44 1011.6
20260505170644 75 183 3.0 3.0 0.00 0.00 0.00 44 1011.6
20260505170140 75 171 4.0 6.0 0.00 0.00 0.00 45 1011.6
20260505165635 74 226 3.0 5.0 0.00 0.00 0.00 45 1011.4
20260505165132 75 254 3.0 6.0 0.00 0.00 0.00 46 1011.5
20260505164627 74 189 2.0 2.0 0.00 0.00 0.00 47 1011.5
20260505164125 74 249 5.0 7.0 0.00 0.00 0.00 49 1011.7
20260505163623 75 189 4.0 6.0 0.00 0.00 0.00 48 1011.8
20260505163120 73 261 4.0 6.0 0.00 0.00 0.00 50 1011.7
20260505162617 73 36 2.0 2.0 0.00 0.00 0.00 51 1011.9
20260505162115 73 248 4.0 6.0 0.00 0.00 0.00 50 1011.9
20260505161612 74 343 3.0 3.0 0.00 0.00 0.00 51 1012.0
20260505161109 73 152 3.0 3.0 0.00 0.00 0.00 48 1011.9
20260505160607 72 184 3.0 3.0 0.00 0.00 0.00 51 1012.1
20260505160104 72 155 5.0 6.0 0.00 0.00 0.00 52 1012.4
20260505153044 72 339 4.0 6.0 0.00 0.00 0.00 55 1012.5
20260505152540 71 212 2.0 3.0 0.00 0.00 0.00 55 1012.5
20260505152036 71 69 1.0 1.0 0.00 0.00 0.00 56 1012.5
20260505151531 70 155 3.0 5.0 0.00 0.00 0.00 56 1012.3
20260505151029 70 146 2.0 2.0 0.00 0.00 0.00 56 1012.4
20260505150525 69 358 2.0 3.0 0.00 0.00 0.00 56 1012.6
20260505140450 68 136 2.0 3.0 0.00 0.00 0.00 62 1012.8
20260505124903 65 117 1.0 2.0 0.00 0.00 0.00 64 1012.6
20260505124400 64 219 3.0 3.0 0.00 0.00 0.00 62 1012.3
20260505123856 63 93 2.0 2.0 0.00 0.00 0.00 65 1012.5
20260505123353 62 309 3.0 5.0 0.00 0.00 0.00 66 1012.5
20260505122849 62 104 2.0 2.0 0.00 0.00 0.00 66 1012.4
20260505122347 62 172 2.0 2.0 0.00 0.00 0.00 68 1012.5
20260505121843 62 186 1.0 1.0 0.00 0.00 0.00 67 1012.6
20260505121340 61 164 2.0 2.0 0.00 0.00 0.00 68 1012.6
20260505120836 60 135 1.0 2.0 0.00 0.00 0.00 69 1012.5
20260505120332 61 159 2.0 2.0 0.00 0.00 0.00 69 1012.6
20260505115831 60 219 3.0 3.0 0.00 0.00 0.00 69 1012.6
20260505115328 60 341 4.0 6.0 0.00 0.00 0.00 69 1012.6
20260505114826 60 224 2.0 2.0 0.00 0.00 0.00 72 1012.6
20260505114322 60 143 2.0 2.0 0.00 0.00 0.00 71 1012.4
20260505113819 59 161 1.0 1.0 0.00 0.00 0.00 72 1012.7
20260505113315 59 146 1.0 2.0 0.00 0.00 0.00 73 1012.3
20260505112811 58 144 1.0 1.0 0.00 0.00 0.00 74 1012.0
20260505112309 58 173 1.0 1.0 0.00 0.00 0.00 74 1012.1
20260505111804 58 258 1.0 2.0 0.00 0.00 0.00 74 1012.0
20260505111300 57 156 1.0 1.0 0.00 0.00 0.00 75 1012.1
20260505110756 57 146 1.0 1.0 0.00 0.00 0.00 77 1012.3
20260505110254 57 189 1.0 2.0 0.00 0.00 0.00 75 1012.1
20260505101728 55 208 1.0 2.0 0.00 0.00 0.00 83 1012.1
20260505101224 54 157 1.0 2.0 0.00 0.00 0.00 84 1011.8
20260505100720 54 156 1.0 1.0 0.00 0.00 0.00 84 1011.6
20260505100218 54 148 1.0 1.0 0.00 0.00 0.00 85 1011.7
20260505095713 53 275 1.0 2.0 0.00 0.00 0.00 87 1011.7
20260505095211 53 170 1.0 2.0 0.00 0.00 0.00 88 1011.6
20260505094706 53 145 0.0 1.0 0.00 0.00 0.00 89 1011.7
20260505094203 53 239 1.0 1.0 0.00 0.00 0.00 90 1011.6
20260505093659 52 160 1.0 1.0 0.00 0.00 0.00 90 1011.7
20260505093157 52 239 0.0 1.0 0.00 0.00 0.00 91 1011.8
20260505092653 53 148 1.0 2.0 0.00 0.00 0.00 91 1011.7
20260505092152 53 157 1.0 2.0 0.00 0.00 0.00 90 1011.7
20260505091649 53 143 1.0 2.0 0.00 0.00 0.00 92 1012.0
20260505091147 52 168 1.0 2.0 0.00 0.00 0.00 94 1011.8
20260505090644 52 154 0.0 1.0 0.00 0.00 0.00 94 1011.8
20260505090143 53 145 1.0 1.0 0.00 0.00 0.00 90 1011.8
20260505085639 53 93 2.0 2.0 0.00 0.00 0.00 86 1012.6
20260505085138 55 163 3.0 3.0 0.00 0.00 0.00 82 1012.1
20260505084635 56 134 2.0 2.0 0.00 0.00 0.00 72 1012.3
20260505084133 56 188 1.0 2.0 0.00 0.00 0.00 69 1012.1
20260505083630 56 171 2.0 2.0 0.00 0.00 0.00 69 1012.0
20260505083127 56 173 2.0 2.0 0.00 0.00 0.00 70 1011.7
20260505082623 56 135 0.0 1.0 0.00 0.00 0.00 69 1011.7
20260505082120 55 159 1.0 1.0 0.00 0.00 0.00 70 1011.8
20260505081616 55 195 2.0 2.0 0.00 0.00 0.00 70 1011.5
20260505081114 55 146 1.0 1.0 0.00 0.00 0.00 70 1011.6
20260505080610 55 143 1.0 1.0 0.00 0.00 0.00 69 1011.6
20260505080106 55 153 1.0 1.0 0.00 0.00 0.00 70 1011.7
20260505075602 55 151 1.0 1.0 0.00 0.00 0.00 69 1011.5
20260505075059 55 170 1.0 1.0 0.00 0.00 0.00 69 1011.4
20260505074556 55 139 1.0 1.0 0.00 0.00 0.00 69 1011.5
20260505074053 55 235 2.0 2.0 0.00 0.00 0.00 69 1011.7
20260505073550 55 140 1.0 1.0 0.00 0.00 0.00 69 1011.5
20260505073049 55 161 2.0 2.0 0.00 0.00 0.00 68 1011.3
20260505072549 55 131 1.0 1.0 0.00 0.00 0.00 68 1011.4
20260505072046 55 140 1.0 1.0 0.00 0.00 0.00 68 1011.7
20260505071542 55 146 2.0 3.0 0.00 0.00 0.00 68 1011.7
20260505071040 56 146 1.0 1.0 0.00 0.00 0.00 67 1011.5
20260505070537 56 147 1.0 1.0 0.00 0.00 0.00 66 1011.5
20260505070033 56 156 1.0 1.0 0.00 0.00 0.00 66 1011.6
20260505065529 57 172 1.0 2.0 0.00 0.00 0.00 65 1011.6
20260505065026 57 144 1.0 1.0 0.00 0.00 0.00 65 1011.6
20260505064523 57 168 2.0 2.0 0.00 0.00 0.00 65 1011.6
20260505064021 57 247 3.0 3.0 0.00 0.00 0.00 64 1011.3
20260505063518 57 175 2.0 3.0 0.00 0.00 0.00 64 1011.5
20260505063014 56 228 3.0 5.0 0.00 0.00 0.00 64 1011.7
20260505062511 56 142 1.0 2.0 0.00 0.00 0.00 64 1011.5
20260505062008 56 176 1.0 2.0 0.00 0.00 0.00 63 1011.5
20260505061506 56 167 2.0 2.0 0.00 0.00 0.00 63 1011.8
20260505061003 56 250 3.0 3.0 0.00 0.00 0.00 63 1011.7
20260505060500 56 145 2.0 2.0 0.00 0.00 0.00 63 1011.8
20260505055956 56 148 1.0 1.0 0.00 0.00 0.00 63 1011.8
20260505055452 56 139 2.0 2.0 0.00 0.00 0.00 63 1011.6
20260505054949 56 134 1.0 1.0 0.00 0.00 0.00 63 1011.9
20260505054447 56 151 1.0 1.0 0.00 0.00 0.00 62 1011.6
20260505053945 56 169 1.0 2.0 0.00 0.00 0.00 62 1011.9
20260505053441 56 138 1.0 1.0 0.00 0.00 0.00 62 1011.7
20260505052938 56 144 1.0 1.0 0.00 0.00 0.00 62 1011.6
20260505052435 56 182 2.0 2.0 0.00 0.00 0.00 61 1011.8
20260505051932 57 150 1.0 1.0 0.00 0.00 0.00 61 1011.7
20260505051429 56 156 2.0 2.0 0.00 0.00 0.00 61 1011.6
20260505050927 57 159 2.0 2.0 0.00 0.00 0.00 61 1011.6
20260505050425 57 142 1.0 1.0 0.00 0.00 0.00 60 1011.7
20260505041353 57 165 2.0 2.0 0.00 0.00 0.00 57 1011.6
20260505040850 58 176 1.0 2.0 0.00 0.00 0.00 58 1011.5
20260505040348 57 239 1.0 1.0 0.00 0.00 0.00 58 1011.4
20260505035844 57 174 2.0 2.0 0.00 0.00 0.00 57 1011.4
20260505035340 57 160 1.0 2.0 0.00 0.00 0.00 57 1011.6
20260505034838 58 136 1.0 1.0 0.00 0.00 0.00 57 1011.5
20260505034334 57 148 2.0 2.0 0.00 0.00 0.00 57 1011.3
20260505033831 58 152 1.0 2.0 0.00 0.00 0.00 57 1011.6
20260505033328 58 252 2.0 2.0 0.00 0.00 0.00 57 1011.5
20260505032826 58 144 1.0 1.0 0.00 0.00 0.00 57 1011.6
20260505032322 58 200 3.0 3.0 0.00 0.00 0.00 56 1011.7
20260505031820 58 194 2.0 2.0 0.00 0.00 0.00 56 1011.6
20260505031316 58 174 2.0 2.0 0.00 0.00 0.00 56 1011.5
20260505030813 58 148 1.0 2.0 0.00 0.00 0.00 55 1011.7
20260505030310 58 191 2.0 3.0 0.00 0.00 0.00 55 1011.8
20260505025804 58 204 2.0 2.0 0.00 0.00 0.00 55 1011.9
20260505025304 58 239 1.0 1.0 0.00 0.00 0.00 55 1012.0
20260505024801 58 193 3.0 3.0 0.00 0.00 0.00 55 1011.9
20260505024258 59 242 3.0 3.0 0.00 0.00 0.00 55 1012.0